Weather History for Glencoe, MN

Change the Weather History Date:

Saturday, October 6, 2012

  Actual Average (KHCD) Record (KHCD)
Temperature  
Mean Temperature 36 °F -  
Max Temperature 43 °F 63 °F 87 °F (2007)
Min Temperature 28 °F 39 °F 1 °F (2004)
Degree Days  
Heating Degree Days 30    
Moisture  
Dew Point 25 °F    
Average Humidity 64    
Maximum Humidity 83    
Minimum Humidity 42    
Precipitation  
Precipitation 0.00 in - - ()
Sea Level Pressure  
Sea Level Pressure 30.24 in    
Wind  
Wind Speed 11 mph (NW)    
Max Wind Speed 18 mph    
Max Gust Speed 22 mph    
Visibility 10 miles    
Events      
Averages and records for this station are not official NWS values.
T = Trace of Precipitation, MM = Missing Value Source: NWS Daily Summary

Daily Weather History Graph

Daily Weather History Graph

Search for Another Location

Airport:

Trip Planner

Search our weather history database for the weather conditions in past years. The results will help you decide how hot, cold, wet, or windy it might be!

Date:

Astronomy

Oct. 06, 2012 Rise Set
Actual Time 7:21 AM CDT 6:46 PM CDT
Civil Twilight 6:51 AM CDT 7:15 PM CDT
Nautical Twilight 6:18 AM CDT 7:49 PM CDT
Astronomical Twilight 5:43 AM CDT 8:23 PM CDT
Moon 10:51 PM CDT (10/6) 1:27 PM CDT (10/6)
Length of Visible Light 12h 24m
Length of Day
11h 25m
Waning Gibbous, 65% of the Moon is Illuminated
Oct 6
Waning Gibbous
Oct 8
Last Quarter
Oct 15
New
Oct 21
First Quarter
Oct 29
Full

Hourly Weather History & Observations

Time (CDT) Temp. Windchill Dew Point Humidity Pressure Visibility Wind Dir Wind Speed Gust Speed Precip Events Conditions
12:15 AM 35.1 °F 26.4 °F 27.0 °F 72% 30.17 in 10.0 mi West 12.7 mph - N/A   Scattered Clouds
12:35 AM 34.7 °F 25.9 °F 27.1 °F 74% 30.17 in 10.0 mi West 12.7 mph - N/A   Clear
12:55 AM 34.7 °F 25.9 °F 27.5 °F 75% 30.17 in 10.0 mi West 12.7 mph - N/A   Scattered Clouds
1:15 AM 34.2 °F 25.7 °F 27.7 °F 77% 30.17 in 10.0 mi West 11.5 mph 18.4 mph N/A   Scattered Clouds
1:35 AM 33.8 °F 24.8 °F 27.5 °F 78% 30.17 in 10.0 mi West 12.7 mph - N/A   Scattered Clouds
1:55 AM 34.3 °F 25.9 °F 28.2 °F 78% 30.17 in 10.0 mi West 11.5 mph - N/A   Mostly Cloudy
2:15 AM 34.9 °F 26.6 °F 28.4 °F 77% 30.18 in 10.0 mi West 11.5 mph - N/A   Overcast
2:35 AM 35.1 °F 26.9 °F 28.4 °F 77% 30.18 in 10.0 mi WNW 11.5 mph - N/A   Overcast
2:55 AM 34.9 °F 27.1 °F 28.4 °F 77% 30.18 in 10.0 mi WNW 10.4 mph - N/A   Overcast
3:15 AM 35.4 °F 27.8 °F 28.6 °F 76% 30.17 in 10.0 mi WNW 10.4 mph - N/A   Overcast
3:35 AM 35.6 °F 26.6 °F 28.9 °F 77% 30.17 in 10.0 mi WNW 13.8 mph - N/A   Overcast
3:55 AM 35.6 °F 27.1 °F 28.9 °F 77% 30.17 in 10.0 mi WNW 12.7 mph 18.4 mph N/A   Overcast
4:36 AM 36.0 °F 26.7 °F 29.3 °F 77% 30.18 in 10.0 mi WNW 15.0 mph - N/A   Overcast
4:55 AM 36.0 °F 28.5 °F 29.3 °F 77% 30.18 in 10.0 mi WNW 10.4 mph - N/A   Overcast
5:15 AM 35.4 °F 27.3 °F 29.3 °F 78% 30.19 in 10.0 mi WNW 11.5 mph - N/A   Overcast
5:35 AM 35.6 °F 28.6 °F 29.5 °F 78% 30.19 in 10.0 mi WNW 9.2 mph - N/A   Overcast
5:55 AM 36.1 °F 28.2 °F 28.9 °F 75% 30.20 in 10.0 mi NW 11.5 mph 18.4 mph N/A   Overcast
6:15 AM 36.1 °F 28.2 °F 28.9 °F 75% 30.20 in 10.0 mi NW 11.5 mph 19.6 mph N/A   Overcast
6:35 AM 36.0 °F 28.0 °F 28.9 °F 76% 30.21 in 10.0 mi NW 11.5 mph 18.4 mph N/A   Overcast
6:55 AM 36.0 °F 28.5 °F 28.9 °F 76% 30.22 in 10.0 mi NW 10.4 mph - N/A   Overcast
7:15 AM 35.6 °F 27.5 °F 29.3 °F 78% 30.22 in 10.0 mi NW 11.5 mph - N/A   Overcast
7:35 AM 35.4 °F 27.3 °F 29.1 °F 78% 30.23 in 10.0 mi NNW 11.5 mph 16.1 mph N/A   Overcast
7:55 AM 34.9 °F 28.3 °F 28.9 °F 79% 30.24 in 10.0 mi NW 8.1 mph - N/A   Overcast
8:15 AM 34.3 °F 27.0 °F 29.1 °F 81% 30.25 in 10.0 mi WNW 9.2 mph - N/A   Overcast
8:35 AM 33.8 °F 27.7 °F 29.1 °F 83% 30.26 in 10.0 mi NW 6.9 mph - N/A   Mostly Cloudy
8:55 AM 35.1 °F 27.9 °F 29.8 °F 81% 30.27 in 10.0 mi WNW 9.2 mph - N/A   Mostly Cloudy
9:15 AM 36.1 °F 27.3 °F 29.1 °F 76% 30.27 in 10.0 mi NNW 13.8 mph - N/A   Overcast
9:35 AM 36.5 °F 28.2 °F 28.8 °F 74% 30.28 in 10.0 mi NNW 12.7 mph 20.7 mph N/A   Overcast
9:55 AM 37.6 °F 28.8 °F 28.6 °F 70% 30.28 in 10.0 mi NNW 15.0 mph 19.6 mph N/A   Mostly Cloudy
10:15 AM 37.8 °F 30.2 °F 28.4 °F 69% 30.28 in 10.0 mi NNW 11.5 mph 18.4 mph N/A   Mostly Cloudy
10:36 AM 37.6 °F 29.6 °F 27.9 °F 68% 30.29 in 10.0 mi NW 12.7 mph - N/A   Overcast
10:55 AM 37.8 °F 30.2 °F 26.2 °F 63% 30.29 in 10.0 mi NW 11.5 mph - N/A   Overcast
11:15 AM 40.3 °F 32.6 °F 26.1 °F 57% 30.28 in 10.0 mi North 13.8 mph 19.6 mph N/A   Mostly Cloudy
11:35 AM 39.4 °F 30.4 °F 25.9 °F 58% 30.28 in 10.0 mi NNW 17.3 mph 20.7 mph N/A   Overcast
11:55 AM 40.6 °F 31.7 °F 25.3 °F 54% 30.28 in 10.0 mi NNW 18.4 mph - N/A   Overcast
12:15 PM 41.2 °F 33.7 °F 24.3 °F 51% 30.29 in 10.0 mi NNW 13.8 mph 21.9 mph N/A   Overcast
12:35 PM 41.0 °F 33.9 °F 23.2 °F 49% 30.29 in 10.0 mi NNW 12.7 mph 21.9 mph N/A   Overcast
12:55 PM 40.8 °F 33.3 °F 22.8 °F 49% 30.29 in 10.0 mi NNW 13.8 mph 18.4 mph N/A   Mostly Cloudy
1:15 PM 41.0 °F 34.7 °F 22.3 °F 47% 30.29 in 10.0 mi NNW 10.4 mph 17.3 mph N/A   Overcast
1:35 PM 41.5 °F 34.6 °F 23.0 °F 48% 30.28 in 10.0 mi North 12.7 mph 17.3 mph N/A   Overcast
1:55 PM 41.0 °F 34.7 °F 23.9 °F 51% 30.28 in 10.0 mi NNW 10.4 mph 16.1 mph N/A   Overcast
2:15 PM 40.6 °F 33.8 °F 22.8 °F 49% 30.27 in 10.0 mi NW 11.5 mph - N/A   Overcast
2:35 PM 41.5 °F 34.6 °F 21.7 °F 45% 30.27 in 10.0 mi NW 12.7 mph 18.4 mph N/A   Overcast
2:55 PM 41.4 °F 35.7 °F 21.9 °F 46% 30.26 in 10.0 mi NNW 9.2 mph 18.4 mph N/A   Mostly Cloudy
3:15 PM 42.4 °F 36.5 °F 21.2 °F 43% 30.25 in 10.0 mi NW 10.4 mph 17.3 mph N/A   Mostly Cloudy
3:36 PM 42.8 °F 37.0 °F 21.7 °F 43% 30.25 in 10.0 mi WNW 10.4 mph - N/A   Mostly Cloudy
3:55 PM 41.9 °F 36.9 °F 21.7 °F 45% 30.25 in 10.0 mi NW 8.1 mph - N/A   Overcast
4:15 PM 43.3 °F 37.7 °F 21.7 °F 42% 30.24 in 10.0 mi NNW 10.4 mph - N/A   Scattered Clouds
4:36 PM 43.2 °F 37.4 °F 21.2 °F 42% 30.23 in 10.0 mi North 10.4 mph - N/A   Clear
4:55 PM 43.0 °F 36.4 °F 21.4 °F 42% 30.23 in 10.0 mi NNW 12.7 mph - N/A   Mostly Cloudy
5:15 PM 42.4 °F 37.5 °F 21.2 °F 43% 30.23 in 10.0 mi NNW 8.1 mph - N/A   Overcast
5:35 PM 42.1 °F 36.1 °F 21.2 °F 43% 30.24 in 10.0 mi North 10.4 mph - N/A   Overcast
5:55 PM 41.9 °F 37.5 °F 21.6 °F 44% 30.24 in 10.0 mi NNW 6.9 mph - N/A   Overcast
6:15 PM 42.1 °F 36.6 °F 21.7 °F 44% 30.24 in 10.0 mi NW 9.2 mph - N/A   Overcast
6:35 PM 41.5 °F 37.8 °F 21.9 °F 46% 30.24 in 10.0 mi WNW 5.8 mph - N/A   Overcast
6:55 PM 39.7 °F 36.5 °F 21.4 °F 48% 30.24 in 10.0 mi WNW 4.6 mph - N/A   Mostly Cloudy
7:16 PM 38.1 °F - 22.3 °F 53% 30.24 in 10.0 mi Calm Calm - N/A   Scattered Clouds
7:35 PM 36.9 °F - 22.1 °F 55% 30.24 in 10.0 mi Calm Calm - N/A   Scattered Clouds
7:55 PM 35.2 °F - 22.1 °F 59% 30.25 in 10.0 mi Calm Calm - N/A   Clear
8:15 PM 34.0 °F 31.0 °F 21.4 °F 60% 30.25 in 10.0 mi WSW 3.5 mph - N/A   Clear
8:35 PM 32.2 °F 27.7 °F 21.0 °F 63% 30.25 in 10.0 mi WSW 4.6 mph - N/A   Clear
8:55 PM 32.2 °F - 21.4 °F 64% 30.25 in 10.0 mi Calm Calm - N/A   Clear
9:15 PM 30.9 °F 26.2 °F 21.6 °F 68% 30.25 in 10.0 mi WSW 4.6 mph - N/A   Clear
9:35 PM 31.6 °F 28.3 °F 21.0 °F 65% 30.25 in 10.0 mi WSW 3.5 mph - N/A   Clear
9:55 PM 31.8 °F 28.5 °F 21.2 °F 65% 30.25 in 10.0 mi WSW 3.5 mph - N/A   Clear
10:15 PM 30.6 °F 27.1 °F 20.8 °F 67% 30.25 in 10.0 mi WSW 3.5 mph - N/A   Clear
10:36 PM 29.8 °F 24.9 °F 20.3 °F 68% 30.25 in 10.0 mi West 4.6 mph - N/A   Clear
11:15 PM 28.0 °F - 19.9 °F 72% 30.24 in 10.0 mi Calm Calm - N/A   Clear
11:35 PM 28.6 °F 23.5 °F 20.3 °F 71% 30.24 in 10.0 mi West 4.6 mph - N/A   Clear
11:55 PM 28.2 °F 24.4 °F 20.3 °F 72% 30.24 in 10.0 mi West 3.5 mph - N/A   Clear